{"data":{"norad_id":67519,"intl_designator":"2026-012AC","name":"STARLINK-36415","alt_names":[],"object_type":"PAYLOAD","status":"ACTIVE","operator":null,"country":"US","launch_date":"2026-01-18","launch_site_code":"AFETR","launch_vehicle":null,"mission":null,"orbit_class":"UNKNOWN","rcs_meters":null,"size_class":null,"mass_kg":null,"dimensions":null,"purposes":["comms"],"wikipedia_slug":null,"has_3d_model":false,"image_url":null,"decayed_at":null,"tle_current":{"epoch":"2026-09-19T19:23:16.409184Z","epoch_age_seconds":132108,"freshness":"FRESH","line1":"1 67519U 26012AC  26262.80782881  .00007316  00000+0  27510-3 0  9993","line2":"2 67519  43.0009 297.7667 0001445 271.6987  88.3699 15.27583131 37452","mean_motion":15.27583131,"eccentricity":0.0001445,"inclination_deg":43.0009,"raan_deg":297.7667,"arg_perigee_deg":271.6987,"mean_anomaly_deg":88.3699,"bstar":0.0002751,"rev_number":3745,"period_min":94.266555500474,"perigee_km":482.04828067915,"apogee_km":484.03116075144,"semimajor_km":6861.1767207153,"source":"CELESTRAK","updated_at":"2026-09-20T09:00:43.563938Z"}}}